Time,TemperatureF,DewpointF,PressureIn,WindDirection,WindDirectionDegrees,WindSpeedMPH,WindSpeedGustMPH,Humidity,HourlyPrecipIn,Conditions,Clouds,dailyrainin,SoftwareType,DateUTC
2013-05-01 00:00:00,61.9,54.6,30.03,SSE,159,0.0,1.0,77,0.00,,CLR,0.00,VWS V14.00,2013-05-01 04:00:00,
2013-05-01 00:01:00,61.9,54.6,30.03,SSE,159,0.0,0.0,77,0.00,,CLR,0.00,VWS V14.00,2013-05-01 04:01:00,
2013-05-01 00:06:00,62.0,54.7,30.03,SSE,159,0.0,2.0,77,0.00,,CLR,0.00,VWS V14.00,2013-05-01 04:06:00,
2013-05-01 00:11:00,61.9,54.6,30.03,SSE,159,0.0,1.0,77,0.00,,CLR,0.00,VWS V14.00,2013-05-01 04:11:00,
2013-05-01 00:16:00,61.9,54.6,30.03,SSE,159,1.0,1.0,77,0.00,,CLR,0.00,VWS V14.00,2013-05-01 04:16:00,
2013-05-01 00:21:00,61.8,54.5,30.04,SSE,159,1.0,2.0,77,0.00,,CLR,0.00,VWS V14.00,2013-05-01 04:21:00,
2013-05-01 00:26:00,61.7,54.4,30.04,SSE,159,0.0,2.0,77,0.00,,CLR,0.00,VWS V14.00,2013-05-01 04:26:00,
2013-05-01 00:31:00,61.6,54.3,30.04,SSE,159,0.0,1.0,77,0.00,,CLR,0.00,VWS V14.00,2013-05-01 04:31:00,
2013-05-01 00:36:00,61.4,54.1,30.04,SSE,159,0.0,2.0,77,0.00,,CLR,0.00,VWS V14.00,2013-05-01 04:36:00,
2013-05-01 00:41:00,61.4,54.1,30.04,SSE,159,0.0,1.0,77,0.00,,CLR,0.00,VWS V14.00,2013-05-01 04:41:00,
2013-05-01 00:46:00,61.4,54.5,30.04,SSE,159,0.0,4.0,78,0.00,,CLR,0.00,VWS V14.00,2013-05-01 04:46:00,
2013-05-01 00:51:00,61.4,54.5,30.04,SSE,159,0.0,1.0,78,0.00,,CLR,0.00,VWS V14.00,2013-05-01 04:51:00,
2013-05-01 00:56:00,61.3,54.4,30.04,SSE,159,0.0,1.0,78,0.00,,CLR,0.00,VWS V14.00,2013-05-01 04:56:00,
2013-05-01 01:01:00,61.1,54.2,30.04,SSE,159,0.0,0.0,78,0.00,,CLR,0.00,VWS V14.00,2013-05-01 05:01:00,
2013-05-01 01:06:00,60.9,54.0,30.04,SSE,159,0.0,1.0,78,0.00,,CLR,0.00,VWS V14.00,2013-05-01 05:06:00,
2013-05-01 01:11:00,60.8,53.9,30.04,SSE,159,0.0,0.0,78,0.00,,CLR,0.00,VWS V14.00,2013-05-01 05:11:00,
2013-05-01 01:16:00,60.6,54.1,30.04,SSE,159,0.0,1.0,79,0.00,,CLR,0.00,VWS V14.00,2013-05-01 05:16:00,
2013-05-01 01:21:00,60.5,54.0,30.04,SSE,159,0.0,0.0,79,0.00,,CLR,0.00,VWS V14.00,2013-05-01 05:21:00,
2013-05-01 01:26:00,60.4,53.9,30.04,SSE,159,0.0,1.0,79,0.00,,CLR,0.00,VWS V14.00,2013-05-01 05:26:00,
2013-05-01 01:31:00,60.3,53.8,30.05,SSE,159,0.0,0.0,79,0.00,,CLR,0.00,VWS V14.00,2013-05-01 05:31:00,
2013-05-01 01:36:00,60.2,53.7,30.05,SSE,159,0.0,1.0,79,0.00,,CLR,0.00,VWS V14.00,2013-05-01 05:36:00,
2013-05-01 01:41:00,60.0,53.5,30.05,SSE,159,0.0,0.0,79,0.00,,CLR,0.00,VWS V14.00,2013-05-01 05:41:00,
2013-05-01 01:46:00,59.8,53.6,30.05,SSE,159,0.0,0.0,80,0.00,,CLR,0.00,VWS V14.00,2013-05-01 05:46:00,
2013-05-01 01:51:00,59.5,53.3,30.05,SSE,159,0.0,0.0,80,0.00,,CLR,0.00,VWS V14.00,2013-05-01 05:51:00,
2013-05-01 01:56:00,59.3,53.5,30.05,SSE,159,0.0,0.0,81,0.00,,CLR,0.00,VWS V14.00,2013-05-01 05:56:00,
2013-05-01 02:01:00,59.1,53.3,30.05,SSE,159,0.0,0.0,81,0.00,,CLR,0.00,VWS V14.00,2013-05-01 06:01:00,
2013-05-01 02:06:00,59.0,53.2,30.05,SSE,159,0.0,0.0,81,0.00,,CLR,0.00,VWS V14.00,2013-05-01 06:06:00,
2013-05-01 02:11:00,59.0,53.2,30.05,SSE,159,0.0,0.0,81,0.00,,CLR,0.00,VWS V14.00,2013-05-01 06:11:00,
2013-05-01 02:16:00,59.0,53.5,30.05,SSE,159,0.0,2.0,82,0.00,,CLR,0.00,VWS V14.00,2013-05-01 06:16:00,
2013-05-01 02:21:00,58.8,53.3,30.05,SSE,159,0.0,1.0,82,0.00,,CLR,0.00,VWS V14.00,2013-05-01 06:21:00,
2013-05-01 02:26:00,58.7,53.2,30.05,SSE,159,0.0,1.0,82,0.00,,CLR,0.00,VWS V14.00,2013-05-01 06:26:00,
2013-05-01 02:31:00,58.6,53.1,30.05,SSE,159,1.0,2.0,82,0.00,,CLR,0.00,VWS V14.00,2013-05-01 06:31:00,
2013-05-01 02:36:00,58.5,53.0,30.05,SSE,159,0.0,2.0,82,0.00,,CLR,0.00,VWS V14.00,2013-05-01 06:36:00,
2013-05-01 02:41:00,58.3,52.8,30.05,SSE,159,0.0,0.0,82,0.00,,CLR,0.00,VWS V14.00,2013-05-01 06:41:00,
2013-05-01 02:46:00,58.2,53.1,30.05,SSE,159,0.0,0.0,83,0.00,,CLR,0.00,VWS V14.00,2013-05-01 06:46:00,
2013-05-01 02:51:00,58.0,52.5,30.05,SSE,159,0.0,0.0,82,0.00,,CLR,0.00,VWS V14.00,2013-05-01 06:51:00,
2013-05-01 02:56:00,57.7,52.6,30.05,SSE,159,0.0,0.0,83,0.00,,CLR,0.00,VWS V14.00,2013-05-01 06:56:00,
2013-05-01 03:01:00,57.6,52.5,30.05,SSE,159,0.0,0.0,83,0.00,,CLR,0.00,VWS V14.00,2013-05-01 07:01:00,
2013-05-01 03:06:00,57.3,52.2,30.05,SSE,159,0.0,0.0,83,0.00,,CLR,0.00,VWS V14.00,2013-05-01 07:06:00,
2013-05-01 03:11:00,57.1,52.3,30.05,SSE,159,1.0,1.0,84,0.00,,CLR,0.00,VWS V14.00,2013-05-01 07:11:00,
2013-05-01 03:16:00,56.9,52.1,30.05,SSE,159,0.0,2.0,84,0.00,,CLR,0.00,VWS V14.00,2013-05-01 07:16:00,
2013-05-01 03:21:00,56.8,52.0,30.05,SSE,159,2.0,2.0,84,0.00,,CLR,0.00,VWS V14.00,2013-05-01 07:21:00,
2013-05-01 03:26:00,56.6,51.8,30.05,SSE,159,0.0,2.0,84,0.00,,CLR,0.00,VWS V14.00,2013-05-01 07:26:00,
2013-05-01 03:31:00,56.4,51.6,30.06,SSE,159,0.0,0.0,84,0.00,,CLR,0.00,VWS V14.00,2013-05-01 07:31:00,
2013-05-01 03:36:00,56.1,51.7,30.06,SSE,159,0.0,0.0,85,0.00,,CLR,0.00,VWS V14.00,2013-05-01 07:36:00,
2013-05-01 03:41:00,55.8,51.4,30.06,SSE,159,0.0,0.0,85,0.00,,CLR,0.00,VWS V14.00,2013-05-01 07:41:00,
2013-05-01 03:46:00,55.6,51.2,30.06,SSE,159,0.0,0.0,85,0.00,,CLR,0.00,VWS V14.00,2013-05-01 07:46:00,
2013-05-01 03:51:00,55.6,51.5,30.06,SSE,159,0.0,0.0,86,0.00,,CLR,0.00,VWS V14.00,2013-05-01 07:51:00,
2013-05-01 03:56:00,55.6,51.5,30.06,SSE,159,0.0,1.0,86,0.00,,CLR,0.00,VWS V14.00,2013-05-01 07:56:00,
2013-05-01 04:01:00,55.7,51.6,30.06,SSE,159,0.0,0.0,86,0.00,,CLR,0.00,VWS V14.00,2013-05-01 08:01:00,
2013-05-01 04:06:00,55.7,51.6,30.06,SSE,159,0.0,1.0,86,0.00,,CLR,0.00,VWS V14.00,2013-05-01 08:06:00,
2013-05-01 04:11:00,55.7,51.6,30.07,SSE,159,0.0,1.0,86,0.00,,CLR,0.00,VWS V14.00,2013-05-01 08:11:00,
2013-05-01 04:16:00,55.6,51.5,30.07,SSE,159,0.0,1.0,86,0.00,,CLR,0.00,VWS V14.00,2013-05-01 08:16:00,
2013-05-01 04:21:00,55.4,51.3,30.07,SSE,159,0.0,0.0,86,0.00,,CLR,0.00,VWS V14.00,2013-05-01 08:21:00,
2013-05-01 04:26:00,55.1,51.0,30.07,SSE,159,0.0,0.0,86,0.00,,CLR,0.00,VWS V14.00,2013-05-01 08:26:00,
2013-05-01 04:31:00,54.9,50.8,30.07,SSE,159,0.0,0.0,86,0.00,,CLR,0.00,VWS V14.00,2013-05-01 08:31:00,
2013-05-01 04:36:00,54.8,51.0,30.07,SSE,159,0.0,0.0,87,0.00,,CLR,0.00,VWS V14.00,2013-05-01 08:36:00,
2013-05-01 04:41:00,54.6,50.8,30.07,SSE,159,0.0,0.0,87,0.00,,CLR,0.00,VWS V14.00,2013-05-01 08:41:00,
2013-05-01 04:46:00,54.4,50.6,30.07,SSE,159,0.0,0.0,87,0.00,,CLR,0.00,VWS V14.00,2013-05-01 08:46:00,
2013-05-01 04:51:00,54.2,50.4,30.08,SSE,159,0.0,0.0,87,0.00,,CLR,0.00,VWS V14.00,2013-05-01 08:51:00,
2013-05-01 04:56:00,54.1,50.6,30.08,SSE,159,0.0,0.0,88,0.00,,CLR,0.00,VWS V14.00,2013-05-01 08:56:00,
2013-05-01 05:01:00,53.9,50.1,30.08,SSE,159,0.0,0.0,87,0.00,,CLR,0.00,VWS V14.00,2013-05-01 09:01:00,
2013-05-01 05:06:00,53.8,50.3,30.08,SSE,159,0.0,0.0,88,0.00,,CLR,0.00,VWS V14.00,2013-05-01 09:06:00,
2013-05-01 05:11:00,53.8,50.6,30.08,SSE,159,0.0,0.0,89,0.00,,CLR,0.00,VWS V14.00,2013-05-01 09:11:00,
2013-05-01 05:16:00,53.8,50.6,30.08,SSE,159,0.0,0.0,89,0.00,,CLR,0.00,VWS V14.00,2013-05-01 09:16:00,
2013-05-01 05:21:00,53.8,50.6,30.08,SSE,159,0.0,0.0,89,0.00,,CLR,0.00,VWS V14.00,2013-05-01 09:21:00,
2013-05-01 05:26:00,53.7,50.5,30.08,SSE,159,0.0,0.0,89,0.00,,CLR,0.00,VWS V14.00,2013-05-01 09:26:00,
2013-05-01 05:31:00,53.6,50.4,30.09,SSE,159,0.0,0.0,89,0.00,,CLR,0.00,VWS V14.00,2013-05-01 09:31:00,
2013-05-01 05:35:00,53.6,50.4,30.08,SSE,159,0.0,0.0,89,0.00,,CLR,0.00,VWS V14.00,2013-05-01 09:35:00,
2013-05-01 05:40:00,53.5,50.3,30.08,SSE,159,0.0,0.0,89,0.00,,CLR,0.00,VWS V14.00,2013-05-01 09:40:00,
2013-05-01 05:45:00,53.3,50.2,30.09,SSE,159,0.0,0.0,89,0.00,,CLR,0.00,VWS V14.00,2013-05-01 09:45:00,
2013-05-01 05:50:00,53.2,50.0,30.09,SSE,159,0.0,0.0,89,0.00,,CLR,0.00,VWS V14.00,2013-05-01 09:50:00,
2013-05-01 05:55:00,53.0,49.8,30.09,SSE,159,0.0,0.0,89,0.00,,CLR,0.00,VWS V14.00,2013-05-01 09:55:00,
2013-05-01 06:00:00,52.9,50.0,30.09,SSE,159,0.0,0.0,90,0.00,,CLR,0.00,VWS V14.00,2013-05-01 10:00:00,
2013-05-01 06:05:00,52.8,50.0,30.09,SSE,159,0.0,0.0,90,0.00,,CLR,0.00,VWS V14.00,2013-05-01 10:05:00,
2013-05-01 06:10:00,52.5,49.7,30.10,SSE,159,0.0,0.0,90,0.00,,CLR,0.00,VWS V14.00,2013-05-01 10:10:00,
2013-05-01 06:15:00,52.3,49.5,30.10,SSE,159,0.0,0.0,90,0.00,,CLR,0.00,VWS V14.00,2013-05-01 10:15:00,
2013-05-01 06:20:00,52.2,49.4,30.10,SSE,159,0.0,0.0,90,0.00,,CLR,0.00,VWS V14.00,2013-05-01 10:20:00,
2013-05-01 06:25:00,52.2,49.4,30.10,SSE,159,0.0,1.0,90,0.00,,CLR,0.00,VWS V14.00,2013-05-01 10:25:00,
2013-05-01 06:30:00,52.2,49.4,30.11,SSE,159,0.0,0.0,90,0.00,,CLR,0.00,VWS V14.00,2013-05-01 10:30:00,
2013-05-01 06:35:00,52.1,49.3,30.11,SSE,159,0.0,0.0,90,0.00,,CLR,0.00,VWS V14.00,2013-05-01 10:35:00,
2013-05-01 06:40:00,52.1,49.3,30.11,SSE,159,0.0,0.0,90,0.00,,CLR,0.00,VWS V14.00,2013-05-01 10:40:00,
2013-05-01 06:45:00,52.2,49.7,30.11,SSE,159,0.0,0.0,91,0.00,,CLR,0.00,VWS V14.00,2013-05-01 10:45:00,
2013-05-01 06:50:00,52.4,49.8,30.12,SSE,159,1.0,1.0,91,0.00,,CLR,0.00,VWS V14.00,2013-05-01 10:50:00,
2013-05-01 06:55:00,52.6,50.0,30.12,SSE,159,0.0,1.0,91,0.00,,CLR,0.00,VWS V14.00,2013-05-01 10:55:00,
2013-05-01 07:00:00,52.8,50.2,30.12,SSE,159,0.0,0.0,91,0.00,,CLR,0.00,VWS V14.00,2013-05-01 11:00:00,
2013-05-01 07:05:00,53.1,50.5,30.13,SSE,159,0.0,2.0,91,0.00,,CLR,0.00,VWS V14.00,2013-05-01 11:05:00,
2013-05-01 07:10:00,53.4,51.1,30.13,SSE,159,0.0,2.0,92,0.00,,CLR,0.00,VWS V14.00,2013-05-01 11:10:00,
2013-05-01 07:15:00,53.8,51.5,30.13,SSE,157,0.0,2.0,92,0.00,,CLR,0.00,VWS V14.00,2013-05-01 11:15:00,
2013-05-01 07:20:00,54.4,52.1,30.13,SSE,157,0.0,0.0,92,0.00,,CLR,0.00,VWS V14.00,2013-05-01 11:20:00,
2013-05-01 07:25:00,55.1,52.5,30.13,SSE,152,0.0,6.0,91,0.00,,CLR,0.00,VWS V14.00,2013-05-01 11:25:00,
2013-05-01 07:30:00,55.9,53.3,30.14,SE,144,3.0,6.0,91,0.00,,CLR,0.00,VWS V14.00,2013-05-01 11:30:00,
2013-05-01 07:35:00,56.7,53.5,30.14,SSE,152,0.0,6.0,89,0.00,,CLR,0.00,VWS V14.00,2013-05-01 11:35:00,
2013-05-01 07:40:00,57.4,53.9,30.14,ESE,118,0.0,3.0,88,0.00,,CLR,0.00,VWS V14.00,2013-05-01 11:40:00,
2013-05-01 07:45:00,58.0,53.8,30.14,SSW,192,2.0,5.0,86,0.00,,CLR,0.00,VWS V14.00,2013-05-01 11:45:00,
2013-05-01 07:50:00,58.6,54.1,30.15,SSE,164,0.0,3.0,85,0.00,,CLR,0.00,VWS V14.00,2013-05-01 11:50:00,
2013-05-01 07:55:00,59.0,54.2,30.15,South,178,0.0,6.0,84,0.00,,CLR,0.00,VWS V14.00,2013-05-01 11:55:00,
2013-05-01 08:00:00,59.4,54.2,30.15,South,184,0.0,0.0,83,0.00,,CLR,0.00,VWS V14.00,2013-05-01 12:00:00,
2013-05-01 08:05:00,60.1,54.6,30.15,SSE,165,0.0,5.0,82,0.00,,CLR,0.00,VWS V14.00,2013-05-01 12:05:00,
2013-05-01 08:10:00,60.8,54.9,30.15,SE,138,0.0,2.0,81,0.00,,CLR,0.00,VWS V14.00,2013-05-01 12:10:00,
2013-05-01 08:15:00,61.5,54.9,30.15,SSW,196,0.0,5.0,79,0.00,,CLR,0.00,VWS V14.00,2013-05-01 12:15:00,
2013-05-01 08:20:00,62.0,54.7,30.15,SSE,168,0.0,5.0,77,0.00,,CLR,0.00,VWS V14.00,2013-05-01 12:20:00,
2013-05-01 08:25:00,62.6,54.9,30.15,South,169,0.0,5.0,76,0.00,,CLR,0.00,VWS V14.00,2013-05-01 12:25:00,
2013-05-01 08:30:00,63.2,55.5,30.15,South,174,4.0,4.0,76,0.00,,CLR,0.00,VWS V14.00,2013-05-01 12:30:00,
2013-05-01 08:35:00,63.5,55.1,30.15,South,186,0.0,5.0,74,0.00,,CLR,0.00,VWS V14.00,2013-05-01 12:35:00,
2013-05-01 08:40:00,64.1,55.3,30.16,South,183,1.0,2.0,73,0.00,,CLR,0.00,VWS V14.00,2013-05-01 12:40:00,
2013-05-01 08:45:00,64.4,55.2,30.16,SSW,198,2.0,4.0,72,0.00,,CLR,0.00,VWS V14.00,2013-05-01 12:45:00,
2013-05-01 08:50:00,64.5,55.3,30.16,SSW,193,1.0,2.0,72,0.00,,CLR,0.00,VWS V14.00,2013-05-01 12:50:00,
2013-05-01 08:55:00,64.8,54.8,30.16,South,190,0.0,4.0,70,0.00,,CLR,0.00,VWS V14.00,2013-05-01 12:55:00,
2013-05-01 09:00:00,65.0,55.4,30.16,SSW,193,0.0,1.0,71,0.00,,CLR,0.00,VWS V14.00,2013-05-01 13:00:00,
2013-05-01 09:05:00,65.2,54.8,30.16,SSW,202,3.0,5.0,69,0.00,,CLR,0.00,VWS V14.00,2013-05-01 13:05:00,
2013-05-01 09:10:00,65.5,55.5,30.16,SSW,210,1.0,4.0,70,0.00,,CLR,0.00,VWS V14.00,2013-05-01 13:10:00,
2013-05-01 09:15:00,65.8,55.8,30.16,SW,221,0.0,6.0,70,0.00,,CLR,0.00,VWS V14.00,2013-05-01 13:15:00,
2013-05-01 09:20:00,66.2,55.7,30.16,SSW,203,0.0,4.0,69,0.00,,CLR,0.00,VWS V14.00,2013-05-01 13:20:00,
2013-05-01 09:25:00,66.4,55.5,30.17,SW,215,0.0,5.0,68,0.00,,CLR,0.00,VWS V14.00,2013-05-01 13:25:00,
2013-05-01 09:30:00,66.7,55.8,30.17,SW,215,0.0,1.0,68,0.00,,CLR,0.00,VWS V14.00,2013-05-01 13:30:00,
2013-05-01 09:35:00,67.4,56.9,30.17,SE,131,0.0,4.0,69,0.00,,CLR,0.00,VWS V14.00,2013-05-01 13:35:00,
2013-05-01 09:40:00,68.0,57.5,30.17,SE,132,0.0,0.0,69,0.00,,CLR,0.00,VWS V14.00,2013-05-01 13:40:00,
2013-05-01 09:45:00,68.6,57.2,30.17,SW,219,0.0,3.0,67,0.00,,CLR,0.00,VWS V14.00,2013-05-01 13:45:00,
2013-05-01 09:50:00,69.3,57.5,30.17,SSE,159,0.0,1.0,66,0.00,,CLR,0.00,VWS V14.00,2013-05-01 13:50:00,
2013-05-01 09:55:00,69.8,57.9,30.17,SSE,150,0.0,4.0,66,0.00,,CLR,0.00,VWS V14.00,2013-05-01 13:55:00,
2013-05-01 10:00:00,70.4,57.2,30.17,South,188,0.0,0.0,63,0.00,,CLR,0.00,VWS V14.00,2013-05-01 14:00:00,
2013-05-01 10:05:00,70.8,57.6,30.17,SSE,160,3.0,4.0,63,0.00,,CLR,0.00,VWS V14.00,2013-05-01 14:05:00,
2013-05-01 10:10:00,71.2,58.0,30.17,SSE,148,0.0,4.0,63,0.00,,CLR,0.00,VWS V14.00,2013-05-01 14:10:00,
2013-05-01 10:15:00,71.5,57.8,30.17,ESE,114,3.0,5.0,62,0.00,,CLR,0.00,VWS V14.00,2013-05-01 14:15:00,
2013-05-01 10:20:00,72.0,58.7,30.17,SE,130,2.0,4.0,63,0.00,,CLR,0.00,VWS V14.00,2013-05-01 14:20:00,
2013-05-01 10:25:00,72.5,58.3,30.17,SE,141,3.0,6.0,61,0.00,,CLR,0.00,VWS V14.00,2013-05-01 14:25:00,
2013-05-01 10:30:00,72.6,58.4,30.17,SE,129,4.0,5.0,61,0.00,,CLR,0.00,VWS V14.00,2013-05-01 14:30:00,
2013-05-01 10:35:00,72.7,58.9,30.17,SE,137,0.0,7.0,62,0.00,,CLR,0.00,VWS V14.00,2013-05-01 14:35:00,
2013-05-01 10:40:00,73.0,59.2,30.17,SSE,147,0.0,3.0,62,0.00,,CLR,0.00,VWS V14.00,2013-05-01 14:40:00,
2013-05-01 10:45:00,73.1,58.9,30.17,SE,136,1.0,9.0,61,0.00,,CLR,0.00,VWS V14.00,2013-05-01 14:45:00,
2013-05-01 10:50:00,73.4,58.7,30.17,ESE,111,5.0,9.0,60,0.00,,CLR,0.00,VWS V14.00,2013-05-01 14:50:00,
2013-05-01 10:55:00,73.9,58.2,30.17,SSE,153,1.0,9.0,58,0.00,,CLR,0.00,VWS V14.00,2013-05-01 14:55:00,
2013-05-01 11:00:00,74.1,59.8,30.17,ESE,119,3.0,6.0,61,0.00,,CLR,0.00,VWS V14.00,2013-05-01 15:00:00,
2013-05-01 11:05:00,74.6,59.3,30.17,SE,144,0.0,6.0,59,0.00,,CLR,0.00,VWS V14.00,2013-05-01 15:05:00,
2013-05-01 11:10:00,75.0,59.2,30.17,SE,142,3.0,6.0,58,0.00,,CLR,0.00,VWS V14.00,2013-05-01 15:10:00,
2013-05-01 11:15:00,75.1,59.3,30.17,SSE,150,0.0,6.0,58,0.00,,CLR,0.00,VWS V14.00,2013-05-01 15:15:00,
2013-05-01 11:20:00,75.3,60.5,30.17,SSE,150,2.0,4.0,60,0.00,,CLR,0.00,VWS V14.00,2013-05-01 15:20:00,
2013-05-01 11:25:00,75.6,60.3,30.17,South,173,3.0,5.0,59,0.00,,CLR,0.00,VWS V14.00,2013-05-01 15:25:00,
2013-05-01 11:30:00,75.9,59.6,30.17,ESE,120,0.0,4.0,57,0.00,,CLR,0.00,VWS V14.00,2013-05-01 15:30:00,
2013-05-01 11:35:00,76.2,59.4,30.17,ESE,110,3.0,4.0,56,0.00,,CLR,0.00,VWS V14.00,2013-05-01 15:35:00,
2013-05-01 11:40:00,76.5,60.2,30.17,South,175,4.0,4.0,57,0.00,,CLR,0.00,VWS V14.00,2013-05-01 15:40:00,
2013-05-01 11:45:00,76.6,59.2,30.17,SSW,198,0.0,4.0,55,0.00,,CLR,0.00,VWS V14.00,2013-05-01 15:45:00,
2013-05-01 11:50:00,76.8,59.9,30.16,South,175,0.0,5.0,56,0.00,,CLR,0.00,VWS V14.00,2013-05-01 15:50:00,
2013-05-01 11:55:00,77.0,59.6,30.16,SE,146,2.0,6.0,55,0.00,,CLR,0.00,VWS V14.00,2013-05-01 15:55:00,
2013-05-01 12:00:00,77.2,59.3,30.16,ESE,115,0.0,1.0,54,0.00,,CLR,0.00,VWS V14.00,2013-05-01 16:00:00,
2013-05-01 12:05:00,77.8,60.9,30.16,South,169,0.0,4.0,56,0.00,,CLR,0.00,VWS V14.00,2013-05-01 16:05:00,
2013-05-01 12:10:00,78.0,58.4,30.16,SSE,150,0.0,0.0,51,0.00,,CLR,0.00,VWS V14.00,2013-05-01 16:10:00,
2013-05-01 12:15:00,78.2,59.2,30.16,SE,137,0.0,4.0,52,0.00,,CLR,0.00,VWS V14.00,2013-05-01 16:15:00,
2013-05-01 12:20:00,78.4,60.9,30.16,South,173,1.0,1.0,55,0.00,,CLR,0.00,VWS V14.00,2013-05-01 16:20:00,
2013-05-01 12:25:00,78.5,60.0,30.16,SSE,156,0.0,6.0,53,0.00,,CLR,0.00,VWS V14.00,2013-05-01 16:25:00,
2013-05-01 12:30:00,78.7,59.1,30.16,SE,130,1.0,4.0,51,0.00,,CLR,0.00,VWS V14.00,2013-05-01 16:30:00,
2013-05-01 12:35:00,78.7,61.2,30.16,SSE,155,0.0,7.0,55,0.00,,CLR,0.00,VWS V14.00,2013-05-01 16:35:00,
2013-05-01 12:40:00,79.0,59.3,30.16,SSE,159,1.0,6.0,51,0.00,,CLR,0.00,VWS V14.00,2013-05-01 16:40:00,
2013-05-01 12:45:00,79.4,60.3,30.16,SE,126,2.0,7.0,52,0.00,,CLR,0.00,VWS V14.00,2013-05-01 16:45:00,
2013-05-01 12:50:00,79.5,58.7,30.16,SSE,149,2.0,7.0,49,0.00,,CLR,0.00,VWS V14.00,2013-05-01 16:50:00,
2013-05-01 12:55:00,79.6,58.8,30.15,SSE,152,0.0,7.0,49,0.00,,CLR,0.00,VWS V14.00,2013-05-01 16:55:00,
2013-05-01 13:00:00,79.8,60.1,30.15,SE,133,1.0,6.0,51,0.00,,CLR,0.00,VWS V14.00,2013-05-01 17:00:00,
2013-05-01 13:05:00,80.2,61.0,30.15,South,169,0.0,6.0,52,0.00,,CLR,0.00,VWS V14.00,2013-05-01 17:05:00,
2013-05-01 13:10:00,80.2,61.0,30.15,SE,129,0.0,5.0,52,0.00,,CLR,0.00,VWS V14.00,2013-05-01 17:10:00,
2013-05-01 13:15:00,80.1,58.7,30.15,SSE,157,0.0,5.0,48,0.00,,CLR,0.00,VWS V14.00,2013-05-01 17:15:00,
2013-05-01 13:20:00,80.1,59.8,30.15,SE,136,3.0,5.0,50,0.00,,CLR,0.00,VWS V14.00,2013-05-01 17:20:00,
2013-05-01 13:25:00,80.5,59.6,30.15,SE,132,1.0,6.0,49,0.00,,CLR,0.00,VWS V14.00,2013-05-01 17:25:00,
2013-05-01 13:30:00,80.5,61.3,30.15,ESE,123,0.0,1.0,52,0.00,,CLR,0.00,VWS V14.00,2013-05-01 17:30:00,
2013-05-01 13:35:00,80.8,60.4,30.15,SE,142,0.0,7.0,50,0.00,,CLR,0.00,VWS V14.00,2013-05-01 17:35:00,
2013-05-01 13:40:00,81.0,60.1,30.15,SE,140,2.0,7.0,49,0.00,,CLR,0.00,VWS V14.00,2013-05-01 17:40:00,
2013-05-01 13:45:00,80.9,60.5,30.15,ESE,123,3.0,7.0,50,0.00,,CLR,0.00,VWS V14.00,2013-05-01 17:45:00,
2013-05-01 13:50:00,81.1,61.3,30.15,SSE,148,0.0,7.0,51,0.00,,CLR,0.00,VWS V14.00,2013-05-01 17:50:00,
2013-05-01 13:55:00,81.1,60.7,30.15,SE,128,1.0,10.0,50,0.00,,CLR,0.00,VWS V14.00,2013-05-01 17:55:00,
2013-05-01 14:00:00,81.0,59.5,30.15,SE,126,4.0,6.0,48,0.00,,CLR,0.00,VWS V14.00,2013-05-01 18:00:00,
2013-05-01 14:05:00,81.1,59.6,30.15,SE,128,0.0,6.0,48,0.00,,CLR,0.00,VWS V14.00,2013-05-01 18:05:00,
2013-05-01 14:10:00,81.7,58.9,30.15,SE,126,4.0,4.0,46,0.00,,CLR,0.00,VWS V14.00,2013-05-01 18:10:00,
2013-05-01 14:15:00,81.9,59.1,30.15,SE,141,0.0,9.0,46,0.00,,CLR,0.00,VWS V14.00,2013-05-01 18:15:00,
2013-05-01 14:20:00,81.9,59.1,30.15,SE,132,2.0,4.0,46,0.00,,CLR,0.00,VWS V14.00,2013-05-01 18:20:00,
2013-05-01 14:25:00,81.8,60.8,30.15,SSE,167,4.0,13.0,49,0.00,,CLR,0.00,VWS V14.00,2013-05-01 18:25:00,
2013-05-01 14:30:00,81.8,59.0,30.15,South,181,1.0,1.0,46,0.00,,CLR,0.00,VWS V14.00,2013-05-01 18:30:00,
2013-05-01 14:35:00,81.7,58.9,30.15,ESE,118,3.0,7.0,46,0.00,,CLR,0.00,VWS V14.00,2013-05-01 18:35:00,
2013-05-01 14:40:00,81.8,60.2,30.15,SE,132,0.0,4.0,48,0.00,,CLR,0.00,VWS V14.00,2013-05-01 18:40:00,
2013-05-01 14:45:00,82.0,59.8,30.15,SW,217,0.0,7.0,47,0.00,,CLR,0.00,VWS V14.00,2013-05-01 18:45:00,
2013-05-01 14:50:00,82.3,60.7,30.15,SSE,165,0.0,1.0,48,0.00,,CLR,0.00,VWS V14.00,2013-05-01 18:50:00,
2013-05-01 14:55:00,82.1,59.9,30.15,SE,130,0.0,10.0,47,0.00,,CLR,0.00,VWS V14.00,2013-05-01 18:55:00,
2013-05-01 15:00:00,82.2,58.8,30.14,SSE,151,0.0,3.0,45,0.00,,CLR,0.00,VWS V14.00,2013-05-01 19:00:00,
2013-05-01 15:05:00,81.9,59.1,30.14,SE,134,5.0,9.0,46,0.00,,CLR,0.00,VWS V14.00,2013-05-01 19:05:00,
2013-05-01 15:10:00,81.7,60.1,30.15,SE,128,5.0,6.0,48,0.00,,CLR,0.00,VWS V14.00,2013-05-01 19:10:00,
2013-05-01 15:14:00,82.2,59.4,30.15,SSE,161,0.0,7.0,46,0.00,,CLR,0.00,VWS V14.00,2013-05-01 19:14:00,
2013-05-01 15:20:00,82.2,57.5,30.15,SE,143,2.0,4.0,43,0.00,,CLR,0.00,VWS V14.00,2013-05-01 19:20:00,
2013-05-01 15:24:00,82.4,59.6,30.15,South,184,5.0,6.0,46,0.00,,CLR,0.00,VWS V14.00,2013-05-01 19:24:00,
2013-05-01 15:29:00,82.8,60.5,30.15,SE,135,4.0,5.0,47,0.00,,CLR,0.00,VWS V14.00,2013-05-01 19:29:00,
2013-05-01 15:34:00,82.9,60.0,30.14,SE,136,6.0,7.0,46,0.00,,CLR,0.00,VWS V14.00,2013-05-01 19:34:00,
2013-05-01 15:39:00,82.5,59.0,30.14,SE,138,0.0,4.0,45,0.00,,CLR,0.00,VWS V14.00,2013-05-01 19:39:00,
2013-05-01 15:44:00,82.1,60.5,30.14,SE,138,6.0,6.0,48,0.00,,CLR,0.00,VWS V14.00,2013-05-01 19:44:00,
2013-05-01 15:49:00,82.1,59.3,30.15,SSE,149,0.0,3.0,46,0.00,,CLR,0.00,VWS V14.00,2013-05-01 19:49:00,
2013-05-01 15:54:00,82.4,59.0,30.14,SE,130,0.0,6.0,45,0.00,,CLR,0.00,VWS V14.00,2013-05-01 19:54:00,
2013-05-01 15:59:00,82.5,60.3,30.14,SSE,148,1.0,11.0,47,0.00,,SCT060,0.00,VWS V14.00,2013-05-01 19:59:00,
2013-05-01 16:04:00,82.7,60.4,30.14,SE,145,0.0,11.0,47,0.00,,SCT060,0.00,VWS V14.00,2013-05-01 20:04:00,
2013-05-01 16:09:00,82.7,58.6,30.14,SE,138,0.0,4.0,44,0.00,,SCT060,0.00,VWS V14.00,2013-05-01 20:09:00,
2013-05-01 16:14:00,82.8,59.9,30.14,SSE,168,3.0,7.0,46,0.00,,SCT060,0.00,VWS V14.00,2013-05-01 20:14:00,
2013-05-01 16:19:00,83.1,60.8,30.14,SSE,168,0.0,4.0,47,0.00,,SCT060,0.00,VWS V14.00,2013-05-01 20:19:00,
2013-05-01 16:24:00,83.1,61.4,30.14,SSE,153,0.0,4.0,48,0.00,,SCT060,0.00,VWS V14.00,2013-05-01 20:24:00,
2013-05-01 16:29:00,83.5,61.2,30.14,SE,129,0.0,1.0,47,0.00,,SCT060,0.00,VWS V14.00,2013-05-01 20:29:00,
2013-05-01 16:34:00,83.6,60.0,30.14,SSW,193,1.0,7.0,45,0.00,,SCT060,0.00,VWS V14.00,2013-05-01 20:34:00,
2013-05-01 16:39:00,83.5,59.3,30.14,SE,146,2.0,3.0,44,0.00,,SCT060,0.00,VWS V14.00,2013-05-01 20:39:00,
2013-05-01 16:44:00,83.2,59.0,30.14,SSW,199,3.0,10.0,44,0.00,,SCT060,0.00,VWS V14.00,2013-05-01 20:44:00,
2013-05-01 16:49:00,83.0,57.6,30.14,SSE,164,0.0,5.0,42,0.00,,SCT060,0.00,VWS V14.00,2013-05-01 20:49:00,
2013-05-01 16:54:00,83.1,59.6,30.14,SSW,213,0.0,7.0,45,0.00,,SCT060,0.00,VWS V14.00,2013-05-01 20:54:00,
2013-05-01 16:59:00,83.3,59.8,30.14,SSE,149,1.0,10.0,45,0.00,,CLR,0.00,VWS V14.00,2013-05-01 20:59:00,
2013-05-01 17:04:00,83.0,58.9,30.14,SSW,212,0.0,10.0,44,0.00,,CLR,0.00,VWS V14.00,2013-05-01 21:04:00,
2013-05-01 17:09:00,83.0,60.1,30.14,East,94,3.0,4.0,46,0.00,,CLR,0.00,VWS V14.00,2013-05-01 21:09:00,
2013-05-01 17:14:00,83.2,60.3,30.14,NNE,17,1.0,4.0,46,0.00,,CLR,0.00,VWS V14.00,2013-05-01 21:14:00,
2013-05-01 17:19:00,82.9,60.6,30.15,ESE,122,4.0,4.0,47,0.00,,CLR,0.00,VWS V14.00,2013-05-01 21:19:00,
2013-05-01 17:24:00,82.5,60.8,30.14,ENE,76,0.0,4.0,48,0.00,,CLR,0.00,VWS V14.00,2013-05-01 21:24:00,
2013-05-01 17:29:00,82.2,60.0,30.14,East,101,0.0,1.0,47,0.00,,CLR,0.00,VWS V14.00,2013-05-01 21:29:00,
2013-05-01 17:34:00,82.0,59.8,30.15,ESE,119,3.0,8.0,47,0.00,,CLR,0.00,VWS V14.00,2013-05-01 21:34:00,
2013-05-01 17:39:00,81.2,60.2,30.15,SE,136,8.0,8.0,49,0.00,,CLR,0.00,VWS V14.00,2013-05-01 21:39:00,
2013-05-01 17:44:00,80.9,58.8,30.14,East,99,0.0,8.0,47,0.00,,CLR,0.00,VWS V14.00,2013-05-01 21:44:00,
2013-05-01 17:49:00,81.0,59.5,30.14,East,94,0.0,0.0,48,0.00,,CLR,0.00,VWS V14.00,2013-05-01 21:49:00,
2013-05-01 17:54:00,81.1,60.2,30.15,East,90,0.0,9.0,49,0.00,,CLR,0.00,VWS V14.00,2013-05-01 21:54:00,
2013-05-01 17:59:00,81.0,58.9,30.15,ENE,71,3.0,3.0,47,0.00,,CLR,0.00,VWS V14.00,2013-05-01 21:59:00,
2013-05-01 18:04:00,80.8,59.3,30.15,East,88,0.0,6.0,48,0.00,,CLR,0.00,VWS V14.00,2013-05-01 22:04:00,
2013-05-01 18:09:00,80.3,58.8,30.15,ESE,103,2.0,7.0,48,0.00,,CLR,0.00,VWS V14.00,2013-05-01 22:09:00,
2013-05-01 18:14:00,79.7,58.9,30.15,ENE,78,1.0,7.0,49,0.00,,CLR,0.00,VWS V14.00,2013-05-01 22:14:00,
2013-05-01 18:19:00,79.3,59.1,30.15,ESE,102,0.0,1.0,50,0.00,,CLR,0.00,VWS V14.00,2013-05-01 22:19:00,
2013-05-01 18:24:00,78.8,58.0,30.15,ESE,110,0.0,12.0,49,0.00,,CLR,0.00,VWS V14.00,2013-05-01 22:24:00,
2013-05-01 18:29:00,78.3,58.2,30.15,SE,130,5.0,6.0,50,0.00,,CLR,0.00,VWS V14.00,2013-05-01 22:29:00,
2013-05-01 18:34:00,77.7,58.2,30.15,ENE,60,6.0,10.0,51,0.00,,CLR,0.00,VWS V14.00,2013-05-01 22:34:00,
2013-05-01 18:39:00,77.5,58.0,30.15,ENE,71,4.0,5.0,51,0.00,,CLR,0.00,VWS V14.00,2013-05-01 22:39:00,
2013-05-01 18:44:00,77.3,57.8,30.16,East,88,1.0,9.0,51,0.00,,CLR,0.00,VWS V14.00,2013-05-01 22:44:00,
2013-05-01 18:49:00,76.8,57.9,30.16,ESE,103,2.0,6.0,52,0.00,,CLR,0.00,VWS V14.00,2013-05-01 22:49:00,
2013-05-01 18:54:00,76.4,58.5,30.16,East,99,9.0,10.0,54,0.00,,CLR,0.00,VWS V14.00,2013-05-01 22:54:00,
2013-05-01 18:59:00,75.8,58.0,30.16,East,96,0.0,6.0,54,0.00,,CLR,0.00,VWS V14.00,2013-05-01 22:59:00,
2013-05-01 19:04:00,75.0,58.3,30.16,East,90,0.0,6.0,56,0.00,,CLR,0.00,VWS V14.00,2013-05-01 23:04:00,
2013-05-01 19:09:00,74.2,58.0,30.16,ENE,78,2.0,5.0,57,0.00,,CLR,0.00,VWS V14.00,2013-05-01 23:09:00,
2013-05-01 19:14:00,73.5,57.8,30.16,ENE,78,1.0,6.0,58,0.00,,CLR,0.00,VWS V14.00,2013-05-01 23:14:00,
2013-05-01 19:19:00,72.6,57.0,30.16,ESE,105,0.0,1.0,58,0.00,,CLR,0.00,VWS V14.00,2013-05-01 23:19:00,
2013-05-01 19:24:00,71.6,57.0,30.16,ENE,71,5.0,5.0,60,0.00,,CLR,0.00,VWS V14.00,2013-05-01 23:24:00,
2013-05-01 19:29:00,70.8,56.7,30.17,ENE,69,0.0,5.0,61,0.00,,CLR,0.00,VWS V14.00,2013-05-01 23:29:00,
2013-05-01 19:34:00,70.2,56.1,30.16,East,84,3.0,11.0,61,0.00,,CLR,0.00,VWS V14.00,2013-05-01 23:34:00,
2013-05-01 19:39:00,69.6,56.0,30.17,ESE,105,2.0,3.0,62,0.00,,CLR,0.00,VWS V14.00,2013-05-01 23:39:00,
2013-05-01 19:44:00,69.1,56.0,30.16,SE,126,0.0,7.0,63,0.00,,CLR,0.00,VWS V14.00,2013-05-01 23:44:00,
2013-05-01 19:49:00,68.6,56.0,30.17,East,80,0.0,0.0,64,0.00,,CLR,0.00,VWS V14.00,2013-05-01 23:49:00,
2013-05-01 19:54:00,68.2,56.0,30.17,East,93,1.0,3.0,65,0.00,,CLR,0.00,VWS V14.00,2013-05-01 23:54:00,
2013-05-01 19:59:00,67.8,55.6,30.17,East,79,0.0,0.0,65,0.00,,CLR,0.00,VWS V14.00,2013-05-01 23:59:00,
2013-05-01 20:04:00,67.5,55.3,30.17,SE,140,0.0,5.0,65,0.00,,CLR,0.00,VWS V14.00,2013-05-02 00:04:00,
2013-05-01 20:09:00,67.1,55.4,30.17,ENE,60,0.0,1.0,66,0.00,,CLR,0.00,VWS V14.00,2013-05-02 00:09:00,
2013-05-01 20:14:00,66.7,55.0,30.17,East,83,0.0,5.0,66,0.00,,CLR,0.00,VWS V14.00,2013-05-02 00:14:00,
2013-05-01 20:19:00,66.3,55.0,30.17,East,94,2.0,5.0,67,0.00,,CLR,0.00,VWS V14.00,2013-05-02 00:19:00,
2013-05-01 20:24:00,66.0,54.7,30.17,ENE,72,0.0,7.0,67,0.00,,CLR,0.00,VWS V14.00,2013-05-02 00:24:00,
2013-05-01 20:29:00,65.7,54.5,30.17,East,90,0.0,0.0,67,0.00,,CLR,0.00,VWS V14.00,2013-05-02 00:29:00,
2013-05-01 20:34:00,65.4,54.6,30.17,East,80,2.0,5.0,68,0.00,,CLR,0.00,VWS V14.00,2013-05-02 00:34:00,
2013-05-01 20:39:00,65.2,54.4,30.17,East,83,0.0,1.0,68,0.00,,CLR,0.00,VWS V14.00,2013-05-02 00:39:00,
2013-05-01 20:44:00,64.9,54.5,30.17,ENE,78,2.0,5.0,69,0.00,,CLR,0.00,VWS V14.00,2013-05-02 00:44:00,
2013-05-01 20:49:00,64.6,54.2,30.17,East,80,0.0,1.0,69,0.00,,CLR,0.00,VWS V14.00,2013-05-02 00:49:00,
2013-05-01 20:54:00,64.3,53.9,30.17,East,91,0.0,4.0,69,0.00,,CLR,0.00,VWS V14.00,2013-05-02 00:54:00,
2013-05-01 20:59:00,63.9,53.9,30.17,East,88,1.0,3.0,70,0.00,,CLR,0.00,VWS V14.00,2013-05-02 00:59:00,
2013-05-01 21:04:00,63.5,53.9,30.17,ESE,121,0.0,4.0,71,0.00,,CLR,0.00,VWS V14.00,2013-05-02 01:04:00,
2013-05-01 21:09:00,63.1,53.6,30.17,ESE,102,0.0,6.0,71,0.00,,CLR,0.00,VWS V14.00,2013-05-02 01:09:00,
2013-05-01 21:14:00,62.8,53.7,30.17,East,91,0.0,6.0,72,0.00,,CLR,0.00,VWS V14.00,2013-05-02 01:14:00,
2013-05-01 21:19:00,62.4,53.3,30.17,ESE,119,1.0,1.0,72,0.00,,CLR,0.00,VWS V14.00,2013-05-02 01:19:00,
2013-05-01 21:24:00,62.0,53.3,30.18,ESE,120,0.0,5.0,73,0.00,,CLR,0.00,VWS V14.00,2013-05-02 01:24:00,
2013-05-01 21:29:00,61.5,53.2,30.18,East,94,0.0,0.0,74,0.00,,CLR,0.00,VWS V14.00,2013-05-02 01:29:00,
2013-05-01 21:34:00,61.2,52.9,30.18,ESE,119,3.0,6.0,74,0.00,,CLR,0.00,VWS V14.00,2013-05-02 01:34:00,
2013-05-01 21:39:00,61.0,53.0,30.18,SE,125,0.0,0.0,75,0.00,,CLR,0.00,VWS V14.00,2013-05-02 01:39:00,
2013-05-01 21:44:00,60.6,52.6,30.19,ESE,114,0.0,7.0,75,0.00,,CLR,0.00,VWS V14.00,2013-05-02 01:44:00,
2013-05-01 21:49:00,60.4,52.8,30.18,ESE,121,0.0,0.0,76,0.00,,CLR,0.00,VWS V14.00,2013-05-02 01:49:00,
2013-05-01 21:54:00,60.2,52.6,30.19,East,96,4.0,4.0,76,0.00,,CLR,0.00,VWS V14.00,2013-05-02 01:54:00,
2013-05-01 21:59:00,60.0,52.4,30.19,ESE,113,1.0,1.0,76,0.00,,CLR,0.00,VWS V14.00,2013-05-02 01:59:00,
2013-05-01 22:04:00,59.8,52.6,30.19,SE,136,2.0,4.0,77,0.00,,CLR,0.00,VWS V14.00,2013-05-02 02:04:00,
2013-05-01 22:09:00,59.6,52.4,30.19,SE,128,1.0,4.0,77,0.00,,CLR,0.00,VWS V14.00,2013-05-02 02:09:00,
2013-05-01 22:14:00,59.5,52.3,30.19,SSE,150,0.0,4.0,77,0.00,,CLR,0.00,VWS V14.00,2013-05-02 02:14:00,
2013-05-01 22:19:00,59.2,52.0,30.19,ESE,113,0.0,0.0,77,0.00,,CLR,0.00,VWS V14.00,2013-05-02 02:19:00,
2013-05-01 22:24:00,59.0,52.2,30.20,ESE,119,0.0,3.0,78,0.00,,CLR,0.00,VWS V14.00,2013-05-02 02:24:00,
2013-05-01 22:29:00,59.0,52.2,30.20,ESE,119,1.0,3.0,78,0.00,,CLR,0.00,VWS V14.00,2013-05-02 02:29:00,
2013-05-01 22:34:00,59.0,52.2,30.20,ESE,120,0.0,3.0,78,0.00,,CLR,0.00,VWS V14.00,2013-05-02 02:34:00,
2013-05-01 22:39:00,59.0,52.5,30.20,ESE,113,0.0,0.0,79,0.00,,CLR,0.00,VWS V14.00,2013-05-02 02:39:00,
2013-05-01 22:44:00,58.7,52.2,30.19,ESE,113,0.0,1.0,79,0.00,,CLR,0.00,VWS V14.00,2013-05-02 02:44:00,
2013-05-01 22:49:00,58.5,52.0,30.19,ESE,113,0.0,0.0,79,0.00,,CLR,0.00,VWS V14.00,2013-05-02 02:49:00,
2013-05-01 22:54:00,58.4,51.9,30.19,ESE,113,0.0,0.0,79,0.00,,CLR,0.00,VWS V14.00,2013-05-02 02:54:00,
2013-05-01 22:59:00,58.2,52.1,30.19,ESE,113,0.0,0.0,80,0.00,,CLR,0.00,VWS V14.00,2013-05-02 02:59:00,
2013-05-01 23:04:00,58.2,52.1,30.19,ESE,113,0.0,0.0,80,0.00,,CLR,0.00,VWS V14.00,2013-05-02 03:04:00,
2013-05-01 23:09:00,58.2,52.1,30.19,ESE,113,0.0,0.0,80,0.00,,CLR,0.00,VWS V14.00,2013-05-02 03:09:00,
2013-05-01 23:14:00,58.1,52.0,30.19,ESE,108,0.0,1.0,80,0.00,,CLR,0.00,VWS V14.00,2013-05-02 03:14:00,
2013-05-01 23:19:00,58.0,51.9,30.19,ESE,108,0.0,1.0,80,0.00,,CLR,0.00,VWS V14.00,2013-05-02 03:19:00,
2013-05-01 23:24:00,57.8,51.7,30.19,ESE,107,0.0,1.0,80,0.00,,CLR,0.00,VWS V14.00,2013-05-02 03:24:00,
2013-05-01 23:29:00,57.6,51.5,30.19,ESE,108,0.0,0.0,80,0.00,,CLR,0.00,VWS V14.00,2013-05-02 03:29:00,
2013-05-01 23:34:00,57.5,51.4,30.19,ESE,108,0.0,1.0,80,0.00,,CLR,0.00,VWS V14.00,2013-05-02 03:34:00,
2013-05-01 23:39:00,57.3,51.5,30.19,ESE,108,0.0,1.0,81,0.00,,CLR,0.00,VWS V14.00,2013-05-02 03:39:00,
2013-05-01 23:44:00,57.1,51.3,30.19,ESE,107,0.0,2.0,81,0.00,,CLR,0.00,VWS V14.00,2013-05-02 03:44:00,
2013-05-01 23:49:00,57.0,51.2,30.19,ESE,108,0.0,2.0,81,0.00,,CLR,0.00,VWS V14.00,2013-05-02 03:49:00,
2013-05-01 23:54:00,56.9,51.5,30.18,ESE,108,0.0,0.0,82,0.00,,CLR,0.00,VWS V14.00,2013-05-02 03:54:00,
2013-05-01 23:59:00,56.8,51.4,30.18,ESE,108,0.0,1.0,82,0.00,,CLR,0.00,VWS V14.00,2013-05-02 03:59:00,